Weather History for Air Force Academy, CO

Change the Weather History Date:

Friday, September 6, 2013

  Actual Average Record
Temperature  
Mean Temperature 70 °F -  
Max Temperature 88 °F 74 °F 88 °F (2013)
Min Temperature 54 °F 47 °F 42 °F (2010)
Cooling Degree Days 6    
Growing Degree Days 20 (Base 50)    
Moisture  
Dew Point 41 °F    
Average Humidity 38    
Maximum Humidity 67    
Minimum Humidity 17    
Precipitation  
Precipitation 0.00 in - - ()
Sea Level Pressure  
Sea Level Pressure 30.00 in    
Wind  
Wind Speed 9 mph (NE)    
Max Wind Speed 15 mph    
Max Gust Speed 20 mph    
Visibility 10 miles    
Events      
Averages and records for this station are not official NWS values.
T = Trace of Precipitation, MM = Missing Value Source: NWS Daily Summary

Daily Weather History Graph

Daily Weather History Graph

Search for Another Location

Airport:

Trip Planner

Search our weather history database for the weather conditions in past years. The results will help you decide how hot, cold, wet, or windy it might be!

Date:

Astronomy

Sep. 06, 2013 Rise Set
Actual Time 6:32 AM MDT 7:21 PM MDT
Civil Twilight 6:05 AM MDT 7:48 PM MDT
Nautical Twilight 5:33 AM MDT 8:20 PM MDT
Astronomical Twilight 5:00 AM MDT 8:53 PM MDT
Moon 7:46 AM MDT (9/6) 7:48 PM MDT (9/6)
Length of Visible Light 13h 42m
Length of Day
12h 48m
New Moon, 2% of the Moon is Illuminated
Sep 6
New Moon
Sep 12
First Quarter
Sep 19
Full
Sep 26
Last Quarter
Oct 4
New

Hourly Weather History & Observations

Time (MDT) Temp. Dew Point Humidity Pressure Visibility Wind Dir Wind Speed Gust Speed Precip Events Conditions
12:58 AM 56.7 °F 43.2 °F 61% 30.04 in 10.0 mi North 8.1 mph - N/A   Clear
1:58 AM 56.1 °F 44.4 °F 65% 30.03 in 10.0 mi North 10.4 mph - N/A   Clear
2:58 AM 55.6 °F 43.7 °F 64% 30.02 in 10.0 mi North 10.4 mph - N/A   Clear
3:58 AM 54.1 °F 43.5 °F 67% 30.03 in 10.0 mi North 10.4 mph - N/A   Clear
4:58 AM 55.8 °F 41.5 °F 59% 30.03 in 10.0 mi North 8.1 mph - N/A   Clear
5:58 AM 55.9 °F 41.9 °F 59% 30.04 in 10.0 mi North 5.8 mph - N/A   Clear
6:58 AM 55.2 °F 42.4 °F 62% 30.05 in 10.0 mi North 8.1 mph - N/A   Clear
7:58 AM 62.6 °F 46.0 °F 55% 30.06 in 10.0 mi NNE 8.1 mph - N/A   Clear
8:58 AM 75.9 °F 44.8 °F 33% 30.02 in 10.0 mi NNE 6.9 mph - N/A   Clear
9:58 AM 82.2 °F 39.7 °F 22% 30.01 in 10.0 mi East 5.8 mph - N/A   Clear
10:58 AM 84.4 °F 37.8 °F 19% 30.03 in 10.0 mi South 9.2 mph - N/A   Clear
11:58 AM 86.2 °F 37.0 °F 17% 30.01 in 10.0 mi South 5.8 mph - N/A   Clear
12:58 PM 86.5 °F 37.6 °F 18% 30.01 in 10.0 mi Variable 5.8 mph - N/A   Clear
1:58 PM 87.6 °F 38.8 °F 18% 29.99 in 10.0 mi East 15.0 mph 19.6 mph N/A   Clear
2:58 PM 87.3 °F 37.8 °F 17% 29.97 in 10.0 mi SSE 10.4 mph 18.4 mph N/A   Clear
3:58 PM 87.1 °F 37.9 °F 18% 29.95 in 10.0 mi SSE 10.4 mph - N/A   Clear
4:58 PM 86.7 °F 36.3 °F 17% 29.94 in 10.0 mi ESE 13.8 mph - N/A   Clear
5:58 PM 85.1 °F 36.1 °F 17% 29.95 in 10.0 mi SE 10.4 mph 18.4 mph N/A   Clear
6:58 PM 81.3 °F 35.4 °F 19% 29.96 in 10.0 mi SE 8.1 mph - N/A   Clear
7:58 PM 76.6 °F 36.9 °F 24% 29.96 in 10.0 mi Calm Calm - N/A   Clear
8:58 PM 66.4 °F 41.9 °F 41% 29.97 in 10.0 mi NNW 8.1 mph - N/A   Clear
9:58 PM 68.0 °F 42.3 °F 39% 29.98 in 10.0 mi NNW 12.7 mph 17.3 mph N/A   Clear
10:58 PM 65.7 °F 46.2 °F 49% 29.98 in 10.0 mi North 10.4 mph - N/A   Clear
11:58 PM 68.5 °F 46.9 °F 46% 29.98 in 10.0 mi NNW 12.7 mph - N/A   Clear